Year,Month,Day,Hour,Minute,Value (Times are PST for temperature in C)
2021,06,28,00,00,26.40
2021,06,28,00,01,26.40
2021,06,28,00,02,26.30
2021,06,28,00,03,26.20
2021,06,28,00,04,26.20
2021,06,28,00,05,26.10
2021,06,28,00,06,26.10
2021,06,28,00,07,26.10
2021,06,28,00,08,26.10
2021,06,28,00,09,26.00
2021,06,28,00,10,26.00
2021,06,28,00,11,26.00
2021,06,28,00,12,25.90
2021,06,28,00,13,25.90
2021,06,28,00,14,25.90
2021,06,28,00,15,25.80
2021,06,28,00,16,25.80
2021,06,28,00,17,25.80
2021,06,28,00,18,25.80
2021,06,28,00,19,25.70
2021,06,28,00,20,25.70
2021,06,28,00,21,25.70
2021,06,28,00,22,25.70
2021,06,28,00,23,25.60
2021,06,28,00,24,25.60
2021,06,28,00,25,25.60
2021,06,28,00,26,25.60
2021,06,28,00,27,25.50
2021,06,28,00,28,25.50
2021,06,28,00,29,25.40
2021,06,28,00,30,25.40
2021,06,28,00,31,25.30
2021,06,28,00,32,25.30
2021,06,28,00,33,25.30
2021,06,28,00,34,25.30
2021,06,28,00,35,25.30
2021,06,28,00,36,25.30
2021,06,28,00,37,25.30
2021,06,28,00,38,25.30
2021,06,28,00,39,25.30
2021,06,28,00,40,25.30
2021,06,28,00,41,25.40
2021,06,28,00,42,25.30
2021,06,28,00,43,25.40
2021,06,28,00,44,25.40
2021,06,28,00,45,25.40
2021,06,28,00,46,25.40
2021,06,28,00,47,25.30
2021,06,28,00,48,25.30
2021,06,28,00,49,25.30
2021,06,28,00,50,25.30
2021,06,28,00,51,25.30
2021,06,28,00,52,25.30
2021,06,28,00,53,25.30
2021,06,28,00,54,25.30
2021,06,28,00,55,25.30
2021,06,28,00,56,25.20
2021,06,28,00,57,25.20
2021,06,28,00,58,25.20
2021,06,28,00,59,25.20
2021,06,28,01,00,25.20
2021,06,28,01,01,25.20
2021,06,28,01,02,25.20
2021,06,28,01,03,25.20
2021,06,28,01,04,25.20
2021,06,28,01,05,25.10
2021,06,28,01,06,25.10
2021,06,28,01,07,25.10
2021,06,28,01,08,25.00
2021,06,28,01,09,25.00
2021,06,28,01,10,24.90
2021,06,28,01,11,24.90
2021,06,28,01,12,24.90
2021,06,28,01,13,24.80
2021,06,28,01,14,24.80
2021,06,28,01,15,24.80
2021,06,28,01,16,24.80
2021,06,28,01,17,24.70
2021,06,28,01,18,24.70
2021,06,28,01,19,24.70
2021,06,28,01,20,24.60
2021,06,28,01,21,24.60
2021,06,28,01,22,24.60
2021,06,28,01,23,24.50
2021,06,28,01,24,24.50
2021,06,28,01,25,24.50
2021,06,28,01,26,24.40
2021,06,28,01,27,24.40
2021,06,28,01,28,24.40
2021,06,28,01,29,24.40
2021,06,28,01,30,24.40
2021,06,28,01,31,24.40
2021,06,28,01,32,24.40
2021,06,28,01,33,24.30
2021,06,28,01,34,24.30
2021,06,28,01,35,24.30
2021,06,28,01,36,24.30
2021,06,28,01,37,24.20
2021,06,28,01,38,24.20
2021,06,28,01,39,24.20
2021,06,28,01,40,24.20
2021,06,28,01,41,24.20
2021,06,28,01,42,24.20
2021,06,28,01,43,24.20
2021,06,28,01,44,24.20
2021,06,28,01,45,24.20
2021,06,28,01,46,24.20
2021,06,28,01,47,24.20
2021,06,28,01,48,24.20
2021,06,28,01,49,24.20
2021,06,28,01,50,24.20
2021,06,28,01,51,24.20
2021,06,28,01,52,24.20
2021,06,28,01,53,24.10
2021,06,28,01,54,24.10
2021,06,28,01,55,24.10
2021,06,28,01,56,24.10
2021,06,28,01,57,24.10
2021,06,28,01,58,24.10
2021,06,28,01,59,24.00
2021,06,28,02,00,24.00
2021,06,28,02,01,24.00
2021,06,28,02,02,24.00
2021,06,28,02,03,24.00
2021,06,28,02,04,23.90
2021,06,28,02,05,23.90
2021,06,28,02,06,23.90
2021,06,28,02,07,23.80
2021,06,28,02,08,23.80
2021,06,28,02,09,23.80
2021,06,28,02,10,23.80
2021,06,28,02,11,23.70
2021,06,28,02,12,23.70
2021,06,28,02,13,23.70
2021,06,28,02,14,23.70
2021,06,28,02,15,23.60
2021,06,28,02,16,23.60
2021,06,28,02,17,23.60
2021,06,28,02,18,23.60
2021,06,28,02,19,23.60
2021,06,28,02,20,23.60
2021,06,28,02,21,23.60
2021,06,28,02,22,23.60
2021,06,28,02,23,23.60
2021,06,28,02,24,23.60
2021,06,28,02,25,23.60
2021,06,28,02,26,23.60
2021,06,28,02,27,23.60
2021,06,28,02,28,23.60
2021,06,28,02,29,23.60
2021,06,28,02,30,23.60
2021,06,28,02,31,23.60
2021,06,28,02,32,23.60
2021,06,28,02,33,23.60
2021,06,28,02,34,23.50
2021,06,28,02,35,23.50
2021,06,28,02,36,23.50
2021,06,28,02,37,23.50
2021,06,28,02,38,23.40
2021,06,28,02,39,23.40
2021,06,28,02,40,23.40
2021,06,28,02,41,23.40
2021,06,28,02,42,23.40
2021,06,28,02,43,23.30
2021,06,28,02,44,23.30
2021,06,28,02,45,23.30
2021,06,28,02,46,23.30
2021,06,28,02,47,23.20
2021,06,28,02,48,23.20
2021,06,28,02,49,23.20
2021,06,28,02,50,23.10
2021,06,28,02,51,23.00
2021,06,28,02,52,23.00
2021,06,28,02,53,23.00
2021,06,28,02,54,22.90
2021,06,28,02,55,22.90
2021,06,28,02,56,22.90
2021,06,28,02,57,22.90
2021,06,28,02,58,22.90
2021,06,28,02,59,22.90
2021,06,28,03,00,22.90
2021,06,28,03,01,22.80
2021,06,28,03,02,22.80
2021,06,28,03,03,22.80
2021,06,28,03,04,22.80
2021,06,28,03,05,22.80
2021,06,28,03,06,22.80
2021,06,28,03,07,22.70
2021,06,28,03,08,22.70
2021,06,28,03,09,22.70
2021,06,28,03,10,22.70
2021,06,28,03,11,22.70
2021,06,28,03,12,22.70
2021,06,28,03,13,22.70
2021,06,28,03,14,22.60
2021,06,28,03,15,22.60
2021,06,28,03,16,22.60
2021,06,28,03,17,22.60
2021,06,28,03,18,22.60
2021,06,28,03,19,22.60
2021,06,28,03,20,22.60
2021,06,28,03,21,22.60
2021,06,28,03,22,22.60
2021,06,28,03,23,22.60
2021,06,28,03,24,22.60
2021,06,28,03,25,22.60
2021,06,28,03,26,22.60
2021,06,28,03,27,22.60
2021,06,28,03,28,22.60
2021,06,28,03,29,22.60
2021,06,28,03,30,22.60
2021,06,28,03,31,22.60
2021,06,28,03,32,22.70
2021,06,28,03,33,22.70
2021,06,28,03,34,22.70
2021,06,28,03,35,22.70
2021,06,28,03,36,22.70
2021,06,28,03,37,22.70
2021,06,28,03,38,22.70
2021,06,28,03,39,22.70
2021,06,28,03,40,22.70
2021,06,28,03,41,22.70
2021,06,28,03,42,22.70
2021,06,28,03,43,22.70
2021,06,28,03,44,22.70
2021,06,28,03,45,22.60
2021,06,28,03,46,22.60
2021,06,28,03,47,22.60
2021,06,28,03,48,22.60
2021,06,28,03,49,22.50
2021,06,28,03,50,22.50
2021,06,28,03,51,22.40
2021,06,28,03,52,22.40
2021,06,28,03,53,22.40
2021,06,28,03,54,22.30
2021,06,28,03,55,22.30
2021,06,28,03,56,22.30
2021,06,28,03,57,22.20
2021,06,28,03,58,22.20
2021,06,28,03,59,22.20
2021,06,28,04,00,22.20
2021,06,28,04,01,22.10
2021,06,28,04,02,22.10
2021,06,28,04,03,22.00
2021,06,28,04,04,22.00
2021,06,28,04,05,22.00
2021,06,28,04,06,21.90
2021,06,28,04,07,21.90
2021,06,28,04,08,21.90
2021,06,28,04,09,21.90
2021,06,28,04,10,21.90
2021,06,28,04,11,21.80
2021,06,28,04,12,21.80
2021,06,28,04,13,21.80
2021,06,28,04,14,21.80
2021,06,28,04,15,21.80
2021,06,28,04,16,21.80
2021,06,28,04,17,21.80
2021,06,28,04,18,21.80
2021,06,28,04,19,21.80
2021,06,28,04,20,21.80
2021,06,28,04,21,21.80
2021,06,28,04,22,21.80
2021,06,28,04,23,21.90
2021,06,28,04,24,21.90
2021,06,28,04,25,21.90
2021,06,28,04,26,21.90
2021,06,28,04,27,21.90
2021,06,28,04,28,21.80
2021,06,28,04,29,21.80
2021,06,28,04,30,21.80
2021,06,28,04,31,21.80
2021,06,28,04,32,21.80
2021,06,28,04,33,21.80
2021,06,28,04,34,21.80
2021,06,28,04,35,21.80
2021,06,28,04,36,21.80
2021,06,28,04,37,21.80
2021,06,28,04,38,21.70
2021,06,28,04,39,21.70
2021,06,28,04,40,21.70
2021,06,28,04,41,21.70
2021,06,28,04,42,21.70
2021,06,28,04,43,21.70
2021,06,28,04,44,21.60
2021,06,28,04,45,21.60
2021,06,28,04,46,21.60
2021,06,28,04,47,21.60
2021,06,28,04,48,21.60
2021,06,28,04,49,21.50
2021,06,28,04,50,21.50
2021,06,28,04,51,21.50
2021,06,28,04,52,21.40
2021,06,28,04,53,21.40
2021,06,28,04,54,21.40
2021,06,28,04,55,21.40
2021,06,28,04,56,21.40
2021,06,28,04,57,21.40
2021,06,28,04,58,21.40
2021,06,28,04,59,21.40
2021,06,28,05,00,21.40
2021,06,28,05,01,21.40
2021,06,28,05,02,21.40
2021,06,28,05,03,21.40
2021,06,28,05,04,21.40
2021,06,28,05,05,21.40
2021,06,28,05,06,21.40
2021,06,28,05,07,21.40
2021,06,28,05,08,21.40
2021,06,28,05,09,21.40
2021,06,28,05,10,21.40
2021,06,28,05,11,21.40
2021,06,28,05,12,21.40
2021,06,28,05,13,21.40
2021,06,28,05,14,21.40
2021,06,28,05,15,21.40
2021,06,28,05,16,21.40
2021,06,28,05,17,21.40
2021,06,28,05,18,21.40
2021,06,28,05,19,21.40
2021,06,28,05,20,21.40
2021,06,28,05,21,21.40
2021,06,28,05,22,21.40
2021,06,28,05,23,21.40
2021,06,28,05,24,21.40
2021,06,28,05,25,21.40
2021,06,28,05,26,21.40
2021,06,28,05,27,21.40
2021,06,28,05,28,21.40
2021,06,28,05,29,21.30
2021,06,28,05,30,21.30
2021,06,28,05,31,21.30
2021,06,28,05,32,21.30
2021,06,28,05,33,21.30
2021,06,28,05,34,21.30
2021,06,28,05,35,21.30
2021,06,28,05,36,21.30
2021,06,28,05,37,21.30
2021,06,28,05,38,21.30
2021,06,28,05,39,21.30
2021,06,28,05,40,21.30
2021,06,28,05,41,21.20
2021,06,28,05,42,21.20
2021,06,28,05,43,21.20
2021,06,28,05,44,21.20
2021,06,28,05,45,21.20
2021,06,28,05,46,21.20
2021,06,28,05,47,21.20
2021,06,28,05,48,21.20
2021,06,28,05,49,21.20
2021,06,28,05,50,21.20
2021,06,28,05,51,21.20
2021,06,28,05,52,21.20
2021,06,28,05,53,21.20
2021,06,28,05,54,21.20
2021,06,28,05,55,21.20
2021,06,28,05,56,21.20
2021,06,28,05,57,21.20
2021,06,28,05,58,21.20
2021,06,28,05,59,21.20
2021,06,28,06,00,21.20
2021,06,28,06,01,21.30
2021,06,28,06,02,21.30
2021,06,28,06,03,21.30
2021,06,28,06,04,21.30
2021,06,28,06,05,21.30
2021,06,28,06,06,21.30
2021,06,28,06,07,21.40
2021,06,28,06,08,21.40
2021,06,28,06,09,21.40
2021,06,28,06,10,21.50
2021,06,28,06,11,21.50
2021,06,28,06,12,21.60
2021,06,28,06,13,21.60
2021,06,28,06,14,21.60
2021,06,28,06,15,21.70
2021,06,28,06,16,21.70
2021,06,28,06,17,21.80
2021,06,28,06,18,21.80
2021,06,28,06,19,21.90
2021,06,28,06,20,21.90
2021,06,28,06,21,21.90
2021,06,28,06,22,22.00
2021,06,28,06,23,22.00
2021,06,28,06,24,22.00
2021,06,28,06,25,22.10
2021,06,28,06,26,22.10
2021,06,28,06,27,22.10
2021,06,28,06,28,22.20
2021,06,28,06,29,22.20
2021,06,28,06,30,22.20
2021,06,28,06,31,22.20
2021,06,28,06,32,22.20
2021,06,28,06,33,22.20
2021,06,28,06,34,22.20
2021,06,28,06,35,22.20
2021,06,28,06,36,22.20
2021,06,28,06,37,22.20
2021,06,28,06,38,22.20
2021,06,28,06,39,22.20
2021,06,28,06,40,22.20
2021,06,28,06,41,22.20
2021,06,28,06,42,22.20
2021,06,28,06,43,22.30
2021,06,28,06,44,22.30
2021,06,28,06,45,22.30
2021,06,28,06,46,22.30
2021,06,28,06,47,22.30
2021,06,28,06,48,22.40
2021,06,28,06,49,22.40
2021,06,28,06,50,22.40
2021,06,28,06,51,22.50
2021,06,28,06,52,22.50
2021,06,28,06,53,22.60
2021,06,28,06,54,22.60
2021,06,28,06,55,22.70
2021,06,28,06,56,22.70
2021,06,28,06,57,22.80
2021,06,28,06,58,22.90
2021,06,28,06,59,22.90
2021,06,28,07,00,23.00
2021,06,28,07,01,23.10
2021,06,28,07,02,23.20
2021,06,28,07,03,23.30
2021,06,28,07,04,23.40
2021,06,28,07,05,23.50
2021,06,28,07,06,23.60
2021,06,28,07,07,23.70
2021,06,28,07,08,23.70
2021,06,28,07,09,23.80
2021,06,28,07,10,23.90
2021,06,28,07,11,23.90
2021,06,28,07,12,24.00
2021,06,28,07,13,24.10
2021,06,28,07,14,24.10
2021,06,28,07,15,24.20
2021,06,28,07,16,24.30
2021,06,28,07,17,24.30
2021,06,28,07,18,24.40
2021,06,28,07,19,24.50
2021,06,28,07,20,24.60
2021,06,28,07,21,24.70
2021,06,28,07,22,24.80
2021,06,28,07,23,24.80
2021,06,28,07,24,24.90
2021,06,28,07,25,25.00
2021,06,28,07,26,25.10
2021,06,28,07,27,25.20
2021,06,28,07,28,25.30
2021,06,28,07,29,25.40
2021,06,28,07,30,25.50
2021,06,28,07,31,25.60
2021,06,28,07,32,25.60
2021,06,28,07,33,25.70
2021,06,28,07,34,25.80
2021,06,28,07,35,25.80
2021,06,28,07,36,25.90
2021,06,28,07,37,25.90
2021,06,28,07,38,25.90
2021,06,28,07,39,26.00
2021,06,28,07,40,26.00
2021,06,28,07,41,26.00
2021,06,28,07,42,26.10
2021,06,28,07,43,26.10
2021,06,28,07,44,26.10
2021,06,28,07,45,26.10
2021,06,28,07,46,26.10
2021,06,28,07,47,26.10
2021,06,28,07,48,26.20
2021,06,28,07,49,26.20
2021,06,28,07,50,26.20
2021,06,28,07,51,26.20
2021,06,28,07,52,26.20
2021,06,28,07,53,26.20
2021,06,28,07,54,26.20
2021,06,28,07,55,26.20
2021,06,28,07,56,26.20
2021,06,28,07,57,26.20
2021,06,28,07,58,26.30
2021,06,28,07,59,26.30
2021,06,28,08,00,26.30
2021,06,28,08,01,26.40
2021,06,28,08,02,26.40
2021,06,28,08,03,26.40
2021,06,28,08,04,26.50
2021,06,28,08,05,26.60
2021,06,28,08,06,26.60
2021,06,28,08,07,26.70
2021,06,28,08,08,26.80
2021,06,28,08,09,26.90
2021,06,28,08,10,26.90
2021,06,28,08,11,27.00
2021,06,28,08,12,27.10
2021,06,28,08,13,27.10
2021,06,28,08,14,27.20
2021,06,28,08,15,27.20
2021,06,28,08,16,27.20
2021,06,28,08,17,27.20
2021,06,28,08,18,27.30
2021,06,28,08,19,27.30
2021,06,28,08,20,27.30
2021,06,28,08,21,27.40
2021,06,28,08,22,27.40
2021,06,28,08,23,27.50
2021,06,28,08,24,27.50
2021,06,28,08,25,27.60
2021,06,28,08,26,27.70
2021,06,28,08,27,27.80
2021,06,28,08,28,27.80
2021,06,28,08,29,27.90
2021,06,28,08,30,27.90
2021,06,28,08,31,27.90
2021,06,28,08,32,28.00
2021,06,28,08,33,28.00
2021,06,28,08,34,28.10
2021,06,28,08,35,28.10
2021,06,28,08,36,28.10
2021,06,28,08,37,28.10
2021,06,28,08,38,28.10
2021,06,28,08,39,28.10
2021,06,28,08,40,28.20
2021,06,28,08,41,28.20
2021,06,28,08,42,28.20
2021,06,28,08,43,28.30
2021,06,28,08,44,28.30
2021,06,28,08,45,28.40
2021,06,28,08,46,28.40
2021,06,28,08,47,28.40
2021,06,28,08,48,28.40
2021,06,28,08,49,28.40
2021,06,28,08,50,28.40
2021,06,28,08,51,28.40
2021,06,28,08,52,28.40
2021,06,28,08,53,28.40
2021,06,28,08,54,28.40
2021,06,28,08,55,28.40
2021,06,28,08,56,28.40
2021,06,28,08,57,28.50
2021,06,28,08,58,28.50
2021,06,28,08,59,28.50
2021,06,28,09,00,28.50
2021,06,28,09,01,28.50
2021,06,28,09,02,28.60
2021,06,28,09,03,28.60
2021,06,28,09,04,28.60
2021,06,28,09,05,28.60
2021,06,28,09,06,28.60
2021,06,28,09,07,28.70
2021,06,28,09,08,28.70
2021,06,28,09,09,28.70
2021,06,28,09,10,28.70
2021,06,28,09,11,28.70
2021,06,28,09,12,28.70
2021,06,28,09,13,28.80
2021,06,28,09,14,28.80
2021,06,28,09,15,28.80
2021,06,28,09,16,28.80
2021,06,28,09,17,28.80
2021,06,28,09,18,28.90
2021,06,28,09,19,29.00
2021,06,28,09,20,29.10
2021,06,28,09,21,29.20
2021,06,28,09,22,29.30
2021,06,28,09,23,29.30
2021,06,28,09,24,29.40
2021,06,28,09,25,29.50
2021,06,28,09,26,29.60
2021,06,28,09,27,29.60
2021,06,28,09,28,29.60
2021,06,28,09,29,29.60
2021,06,28,09,30,29.60
2021,06,28,09,31,29.60
2021,06,28,09,32,29.70
2021,06,28,09,33,29.70
2021,06,28,09,34,29.70
2021,06,28,09,35,29.70
2021,06,28,09,36,29.80
2021,06,28,09,37,29.80
2021,06,28,09,38,29.80
2021,06,28,09,39,29.80
2021,06,28,09,40,29.90
2021,06,28,09,41,29.90
2021,06,28,09,42,29.90
2021,06,28,09,43,29.90
2021,06,28,09,44,29.90
2021,06,28,09,45,30.00
2021,06,28,09,46,30.00
2021,06,28,09,47,30.10
2021,06,28,09,48,30.10
2021,06,28,09,49,30.10
2021,06,28,09,50,30.20
2021,06,28,09,51,30.30
2021,06,28,09,52,30.30
2021,06,28,09,53,30.40
2021,06,28,09,54,30.50
2021,06,28,09,55,30.50
2021,06,28,09,56,30.60
2021,06,28,09,57,30.60
2021,06,28,09,58,30.60
2021,06,28,09,59,30.60
2021,06,28,10,00,30.60
2021,06,28,10,01,30.60
2021,06,28,10,02,30.60
2021,06,28,10,03,30.70
2021,06,28,10,04,30.70
2021,06,28,10,05,30.70
2021,06,28,10,06,30.70
2021,06,28,10,07,30.70
2021,06,28,10,08,30.70
2021,06,28,10,09,30.80
2021,06,28,10,10,30.80
2021,06,28,10,11,30.80
2021,06,28,10,12,30.80
2021,06,28,10,13,30.80
2021,06,28,10,14,30.90
2021,06,28,10,15,30.90
2021,06,28,10,16,30.90
2021,06,28,10,17,31.00
2021,06,28,10,18,31.00
2021,06,28,10,19,31.00
2021,06,28,10,20,31.10
2021,06,28,10,21,31.10
2021,06,28,10,22,31.10
2021,06,28,10,23,31.10
2021,06,28,10,24,31.10
2021,06,28,10,25,31.10
2021,06,28,10,26,31.20
2021,06,28,10,27,31.20
2021,06,28,10,28,31.20
2021,06,28,10,29,31.20
2021,06,28,10,30,31.20
2021,06,28,10,31,31.20
2021,06,28,10,32,31.20
2021,06,28,10,33,31.20
2021,06,28,10,34,31.20
2021,06,28,10,35,31.20
2021,06,28,10,36,31.20
2021,06,28,10,37,31.30
2021,06,28,10,38,31.30
2021,06,28,10,39,31.30
2021,06,28,10,40,31.30
2021,06,28,10,41,31.30
2021,06,28,10,42,31.30
2021,06,28,10,43,31.40
2021,06,28,10,44,31.40
2021,06,28,10,45,31.40
2021,06,28,10,46,31.40
2021,06,28,10,47,31.40
2021,06,28,10,48,31.50
2021,06,28,10,49,31.60
2021,06,28,10,50,31.60
2021,06,28,10,51,31.80
2021,06,28,10,52,31.80
2021,06,28,10,53,31.90
2021,06,28,10,54,32.00
2021,06,28,10,55,32.10
2021,06,28,10,56,32.20
2021,06,28,10,57,32.30
2021,06,28,10,58,32.40
2021,06,28,10,59,32.40
2021,06,28,11,00,32.50
2021,06,28,11,01,32.60
2021,06,28,11,02,32.60
2021,06,28,11,03,32.50
2021,06,28,11,04,32.50
2021,06,28,11,05,32.50
2021,06,28,11,06,32.50
2021,06,28,11,07,32.60
2021,06,28,11,08,32.60
2021,06,28,11,09,32.60
2021,06,28,11,10,32.60
2021,06,28,11,11,32.60
2021,06,28,11,12,32.60
2021,06,28,11,13,32.60
2021,06,28,11,14,32.60
2021,06,28,11,15,32.60
2021,06,28,11,16,32.60
2021,06,28,11,17,32.60
2021,06,28,11,18,32.60
2021,06,28,11,19,32.50
2021,06,28,11,20,32.50
2021,06,28,11,21,32.50
2021,06,28,11,22,32.50
2021,06,28,11,23,32.60
2021,06,28,11,24,32.60
2021,06,28,11,25,32.70
2021,06,28,11,26,32.70
2021,06,28,11,27,32.80
2021,06,28,11,28,32.80
2021,06,28,11,29,32.80
2021,06,28,11,30,32.80
2021,06,28,11,31,32.80
2021,06,28,11,32,32.80
2021,06,28,11,33,32.80
2021,06,28,11,34,32.90
2021,06,28,11,35,32.90
2021,06,28,11,36,33.00
2021,06,28,11,37,33.00
2021,06,28,11,38,33.00
2021,06,28,11,39,33.00
2021,06,28,11,40,33.00
2021,06,28,11,41,33.00
2021,06,28,11,42,33.00
2021,06,28,11,43,33.00
2021,06,28,11,44,33.00
2021,06,28,11,45,33.10
2021,06,28,11,46,33.20
2021,06,28,11,47,33.20
2021,06,28,11,48,33.30
2021,06,28,11,49,33.30
2021,06,28,11,50,33.30
2021,06,28,11,51,33.40
2021,06,28,11,52,33.40
2021,06,28,11,53,33.40
2021,06,28,11,54,33.50
2021,06,28,11,55,33.50
2021,06,28,11,56,33.60
2021,06,28,11,57,33.60
2021,06,28,11,58,33.60
2021,06,28,11,59,33.60
2021,06,28,12,00,33.60
2021,06,28,12,01,33.70
2021,06,28,12,02,33.70
2021,06,28,12,03,33.70
2021,06,28,12,04,33.80
2021,06,28,12,05,33.90
2021,06,28,12,06,34.00
2021,06,28,12,07,34.00
2021,06,28,12,08,34.10
2021,06,28,12,09,34.10
2021,06,28,12,10,34.10
2021,06,28,12,11,34.10
2021,06,28,12,12,34.10
2021,06,28,12,13,34.10
2021,06,28,12,14,34.20
2021,06,28,12,15,34.30
2021,06,28,12,16,34.40
2021,06,28,12,17,34.50
2021,06,28,12,18,34.50
2021,06,28,12,19,34.50
2021,06,28,12,20,34.50
2021,06,28,12,21,34.60
2021,06,28,12,22,34.60
2021,06,28,12,23,34.70
2021,06,28,12,24,34.70
2021,06,28,12,25,34.80
2021,06,28,12,26,34.80
2021,06,28,12,27,34.70
2021,06,28,12,28,34.60
2021,06,28,12,29,34.60
2021,06,28,12,30,34.60
2021,06,28,12,31,34.60
2021,06,28,12,32,34.70
2021,06,28,12,33,34.70
2021,06,28,12,34,34.80
2021,06,28,12,35,34.80
2021,06,28,12,36,34.80
2021,06,28,12,37,34.80
2021,06,28,12,38,34.90
2021,06,28,12,39,34.90
2021,06,28,12,40,35.00
2021,06,28,12,41,35.00
2021,06,28,12,42,35.10
2021,06,28,12,43,35.10
2021,06,28,12,44,35.20
2021,06,28,12,45,35.30
2021,06,28,12,46,35.30
2021,06,28,12,47,35.30
2021,06,28,12,48,35.20
2021,06,28,12,49,35.20
2021,06,28,12,50,35.20
2021,06,28,12,51,35.10
2021,06,28,12,52,35.10
2021,06,28,12,53,35.10
2021,06,28,12,54,35.10
2021,06,28,12,55,35.20
2021,06,28,12,56,35.20
2021,06,28,12,57,35.20
2021,06,28,12,58,35.20
2021,06,28,12,59,35.20
2021,06,28,13,00,35.20
2021,06,28,13,01,35.20
2021,06,28,13,02,35.10
2021,06,28,13,03,35.10
2021,06,28,13,04,35.00
2021,06,28,13,05,35.00
2021,06,28,13,06,35.00
2021,06,28,13,07,35.10
2021,06,28,13,08,35.10
2021,06,28,13,09,35.10
2021,06,28,13,10,35.20
2021,06,28,13,11,35.20
2021,06,28,13,12,35.10
2021,06,28,13,13,35.10
2021,06,28,13,14,35.10
2021,06,28,13,15,35.10
2021,06,28,13,16,35.10
2021,06,28,13,17,35.10
2021,06,28,13,18,35.10
2021,06,28,13,19,35.00
2021,06,28,13,20,34.90
2021,06,28,13,21,34.90
2021,06,28,13,22,34.80
2021,06,28,13,23,34.80
2021,06,28,13,24,34.80
2021,06,28,13,25,34.80
2021,06,28,13,26,34.80
2021,06,28,13,27,34.80
2021,06,28,13,28,34.80
2021,06,28,13,29,34.80
2021,06,28,13,30,34.80
2021,06,28,13,31,34.90
2021,06,28,13,32,34.90
2021,06,28,13,33,35.00
2021,06,28,13,34,35.00
2021,06,28,13,35,35.10
2021,06,28,13,36,35.10
2021,06,28,13,37,35.10
2021,06,28,13,38,35.10
2021,06,28,13,39,35.10
2021,06,28,13,40,35.10
2021,06,28,13,41,35.10
2021,06,28,13,42,35.20
2021,06,28,13,43,35.20
2021,06,28,13,44,35.20
2021,06,28,13,45,35.20
2021,06,28,13,46,35.10
2021,06,28,13,47,35.10
2021,06,28,13,48,35.10
2021,06,28,13,49,35.20
2021,06,28,13,50,35.20
2021,06,28,13,51,35.20
2021,06,28,13,52,35.30
2021,06,28,13,53,35.30
2021,06,28,13,54,35.40
2021,06,28,13,55,35.50
2021,06,28,13,56,35.60
2021,06,28,13,57,35.70
2021,06,28,13,58,35.80
2021,06,28,13,59,35.90
2021,06,28,14,00,36.00
2021,06,28,14,01,36.00
2021,06,28,14,02,36.10
2021,06,28,14,03,36.10
2021,06,28,14,04,36.10
2021,06,28,14,05,36.00
2021,06,28,14,06,35.90
2021,06,28,14,07,35.90
2021,06,28,14,08,35.80
2021,06,28,14,09,35.80
2021,06,28,14,10,35.80
2021,06,28,14,11,35.80
2021,06,28,14,12,35.80
2021,06,28,14,13,35.90
2021,06,28,14,14,35.90
2021,06,28,14,15,36.00
2021,06,28,14,16,36.10
2021,06,28,14,17,36.10
2021,06,28,14,18,36.10
2021,06,28,14,19,36.10
2021,06,28,14,20,36.10
2021,06,28,14,21,36.10
2021,06,28,14,22,36.10
2021,06,28,14,23,36.10
2021,06,28,14,24,36.20
2021,06,28,14,25,36.20
2021,06,28,14,26,36.20
2021,06,28,14,27,36.10
2021,06,28,14,28,36.00
2021,06,28,14,29,35.90
2021,06,28,14,30,35.90
2021,06,28,14,31,35.80
2021,06,28,14,32,35.80
2021,06,28,14,33,35.80
2021,06,28,14,34,35.80
2021,06,28,14,35,35.80
2021,06,28,14,36,35.80
2021,06,28,14,37,35.70
2021,06,28,14,38,35.70
2021,06,28,14,39,35.60
2021,06,28,14,40,35.60
2021,06,28,14,41,35.60
2021,06,28,14,42,35.60
2021,06,28,14,43,35.60
2021,06,28,14,44,35.70
2021,06,28,14,45,35.70
2021,06,28,14,46,35.80
2021,06,28,14,47,35.80
2021,06,28,14,48,35.80
2021,06,28,14,49,35.80
2021,06,28,14,50,35.80
2021,06,28,14,51,35.80
2021,06,28,14,52,35.80
2021,06,28,14,53,35.80
2021,06,28,14,54,35.80
2021,06,28,14,55,35.80
2021,06,28,14,56,35.80
2021,06,28,14,57,35.80
2021,06,28,14,58,35.80
2021,06,28,14,59,35.70
2021,06,28,15,00,35.60
2021,06,28,15,01,35.60
2021,06,28,15,02,35.60
2021,06,28,15,03,35.60
2021,06,28,15,04,35.60
2021,06,28,15,05,35.60
2021,06,28,15,06,35.60
2021,06,28,15,07,35.60
2021,06,28,15,08,35.50
2021,06,28,15,09,35.50
2021,06,28,15,10,35.50
2021,06,28,15,11,35.50
2021,06,28,15,12,35.50
2021,06,28,15,13,35.40
2021,06,28,15,14,35.40
2021,06,28,15,15,35.40
2021,06,28,15,16,35.50
2021,06,28,15,17,35.50
2021,06,28,15,18,35.60
2021,06,28,15,19,35.60
2021,06,28,15,20,35.60
2021,06,28,15,21,35.70
2021,06,28,15,22,35.70
2021,06,28,15,23,35.70
2021,06,28,15,24,35.70
2021,06,28,15,25,35.70
2021,06,28,15,26,35.80
2021,06,28,15,27,35.80
2021,06,28,15,28,35.90
2021,06,28,15,29,35.90
2021,06,28,15,30,35.90
2021,06,28,15,31,36.00
2021,06,28,15,32,36.10
2021,06,28,15,33,36.20
2021,06,28,15,34,36.20
2021,06,28,15,35,36.20
2021,06,28,15,36,36.20
2021,06,28,15,37,36.20
2021,06,28,15,38,36.30
2021,06,28,15,39,36.30
2021,06,28,15,40,36.30
2021,06,28,15,41,36.30
2021,06,28,15,42,36.40
2021,06,28,15,43,36.30
2021,06,28,15,44,36.30
2021,06,28,15,45,36.30
2021,06,28,15,46,36.30
2021,06,28,15,47,36.20
2021,06,28,15,48,36.20
2021,06,28,15,49,36.20
2021,06,28,15,50,36.20
2021,06,28,15,51,36.20
2021,06,28,15,52,36.20
2021,06,28,15,53,36.30
2021,06,28,15,54,36.30
2021,06,28,15,55,36.30
2021,06,28,15,56,36.40
2021,06,28,15,57,36.40
2021,06,28,15,58,36.50
2021,06,28,15,59,36.60
2021,06,28,16,00,36.60
2021,06,28,16,01,36.60
2021,06,28,16,02,36.70
2021,06,28,16,03,36.80
2021,06,28,16,04,36.80
2021,06,28,16,05,36.80
2021,06,28,16,06,36.80
2021,06,28,16,07,36.90
2021,06,28,16,08,36.90
2021,06,28,16,09,36.90
2021,06,28,16,10,36.90
2021,06,28,16,11,37.00
2021,06,28,16,12,37.00
2021,06,28,16,13,37.00
2021,06,28,16,14,37.00
2021,06,28,16,15,37.00
2021,06,28,16,16,36.90
2021,06,28,16,17,36.90
2021,06,28,16,18,36.90
2021,06,28,16,19,36.90
2021,06,28,16,20,36.90
2021,06,28,16,21,36.90
2021,06,28,16,22,36.90
2021,06,28,16,23,36.90
2021,06,28,16,24,36.90
2021,06,28,16,25,36.90
2021,06,28,16,26,36.90
2021,06,28,16,27,36.90
2021,06,28,16,28,36.90
2021,06,28,16,29,36.90
2021,06,28,16,30,37.00
2021,06,28,16,31,37.00
2021,06,28,16,32,37.10
2021,06,28,16,33,37.10
2021,06,28,16,34,37.10
2021,06,28,16,35,37.20
2021,06,28,16,36,37.20
2021,06,28,16,37,37.30
2021,06,28,16,38,37.30
2021,06,28,16,39,37.30
2021,06,28,16,40,37.30
2021,06,28,16,41,37.40
2021,06,28,16,42,37.50
2021,06,28,16,43,37.50
2021,06,28,16,44,37.50
2021,06,28,16,45,37.50
2021,06,28,16,46,37.50
2021,06,28,16,47,37.50
2021,06,28,16,48,37.50
2021,06,28,16,49,37.50
2021,06,28,16,50,37.50
2021,06,28,16,51,37.40
2021,06,28,16,52,37.40
2021,06,28,16,53,37.40
2021,06,28,16,54,37.40
2021,06,28,16,55,37.40
2021,06,28,16,56,37.30
2021,06,28,16,57,37.30
2021,06,28,16,58,37.30
2021,06,28,16,59,37.30
2021,06,28,17,00,37.40
2021,06,28,17,01,37.40
2021,06,28,17,02,37.40
2021,06,28,17,03,37.40
2021,06,28,17,04,37.50
2021,06,28,17,05,37.50
2021,06,28,17,06,37.50
2021,06,28,17,07,37.50
2021,06,28,17,08,37.40
2021,06,28,17,09,37.40
2021,06,28,17,10,37.40
2021,06,28,17,11,37.40
2021,06,28,17,12,37.30
2021,06,28,17,13,37.30
2021,06,28,17,14,37.40
2021,06,28,17,15,37.40
2021,06,28,17,16,37.40
2021,06,28,17,17,37.40
2021,06,28,17,18,37.40
2021,06,28,17,19,37.40